Location: Balaclava NSW 2575, Australia
(34.4510°S, 150.4953°E)
Time: 01:34:45
(UTC+10:00)

A-11 Canister half - Pass Details

Date: 16 June 2021
Orbit: 1513 x 1687 km, 47.2° (Epoch: 28 July)

Event Time Altitude Azimuth Distance (km) Brightness Sun altitude
Rises 21:41:49 0° 241° (WSW) 4,804 12.0 -58.2°
Reaches altitude 10° 21:45:05 10° 234° (SW) 3,843 11.4 -58.9°
Enters shadow 21:46:46 16° 230° (SW) 3,377 11.0 -59.2°
